Location: Bonnesvalyn
(49.1218°N, 3.3177°E)
Time: 15:34:59
(UTC+00:00)

Cosmos 1814 Rocket - Pass Details

Date: 09 February 2023
Orbit: 743 x 786 km, 74.1° (Epoch: 25 March)

Event Time Altitude Azimuth Distance (km) Brightness Sun altitude
Rises 17:53:33 0° 338° (NNW) 3,289 7.4 -9.8°
Reaches altitude 10° 17:55:58 10° 341° (NNW) 2,358 6.6 -10.2°
Maximum altitude 18:01:19 66° 64° (ENE) 859 4.0 -11.0°
Drops below altitude 10° 18:06:37 10° 147° (SSE) 2,339 6.3 -11.9°
Sets 18:09:01 0° 150° (SSE) 3,260 7.0 -12.3°
